Regional Weather Roundup
Issued by NWS Little Rock, AR

Home | Current Version | Previous Version | Graphics & Text | Print | Product List | Glossary On
Versions: 1 2 3 4 5 6 7 8 9 10 11 12 13 14 15 16 17 18 19 20 21 22 23 24 25 26 27 28 29 30 31 32 33 34 35 36 37 38 39 40 41 42 43 44 45 46 47 48 49 50
000
ASUS44 KLZK 311905
RWRLZK

WEATHER ROUNDUP FOR ARKANSAS
NATIONAL WEATHER SERVICE LITTLE ROCK AR
100 PM CST SAT JAN 31 2015

NOTE: "FAIR" INDICATES FEW OR NO CLOUDS BELOW 12,000 FEET WITH NO
SIGNIFICANT WEATHER AND/OR OBSTRUCTIONS TO VISIBILITY.

ARZ001-003-010-029-312000-
NORTHWEST ARKANSAS

CITY           SKY/WX    TMP DP  RH WIND       PRES   REMARKS
FAYETTEVILLE   CLOUDY    46  25  43 S13       30.16F
FORT SMITH     CLOUDY    53  26  35 SE12G20   30.19F
HARRISON       CLOUDY    46  22  38 SE15      30.18F
BENTONVILLE    CLOUDY    46  16  29 S12       30.16F
ROGERS         CLOUDY    47  14  26 SE14      30.14F
SILOAM SPGS    CLOUDY   N/A N/A N/A S12       30.17F
HIGHFILL       CLOUDY    46  20  35 S13       30.16F
SPRINGDALE     MOSUNNY   46  19  34 SE8       30.17F
$$

ARZ004-005-016-312000-
NORTH CENTRAL ARKANSAS

CITY           SKY/WX    TMP DP  RH WIND       PRES   REMARKS
BATESVILLE     CLOUDY    45  25  45 SE5       30.28F
FLIPPIN        CLOUDY    46  21  36 SE6       30.23F
MTN HOME       CLOUDY    44  25  47 SE7       30.23F
$$

ARZ040-041-312000-
WEST CENTRAL ARKANSAS

CITY           SKY/WX    TMP DP  RH WIND       PRES   REMARKS
MENA           CLOUDY    52  30  43 SE6       30.18F
MOUNT IDA      CLOUDY    47  27  45 VRB5      30.20F
$$

ARZ009-017-025-026-028-312000-
NORTHEAST ARKANSAS

CITY           SKY/WX    TMP DP  RH WIND       PRES   REMARKS
CORNING        FAIR      45  28  53 E5        30.30F
JONESBORO      CLOUDY    42  27  55 S3        30.30F
NEWPORT        CLOUDY    46  27  48 S5        30.31F
WALNUT RIDGE   PTSUNNY   45  27  49 S7        30.29F
BLYTHEVILLE    CLOUDY    45  25  45 SE3       30.30F
$$

ARZ022-023-033-042-044-312000-
CENTRAL ARKANSAS

CITY           SKY/WX    TMP DP  RH WIND       PRES   REMARKS
LITTLE ROCK    CLOUDY    46  27  47 E6        30.28F
N LITTLE ROCK  CLOUDY    44  29  55 SE7       30.28F
JACKSONVILLE   CLOUDY    46  27  48 S5        30.27F
SEARCY         CLOUDY    49  27  42 S6        30.30F
HOT SPRINGS    CLOUDY    46  26  45 SE5       30.25F
RUSSELLVILLE   CLOUDY    45  29  53 E7        30.24F
CLINTON        FAIR      45  27  49 E3        30.28F
$$

ARZ036-312000-
EAST ARKANSAS

CITY           SKY/WX    TMP DP  RH WIND       PRES   REMARKS
WEST MEMPHIS   CLOUDY    44  25  47 SE6       30.28F
$$

ARZ050-053-066-070-073-312000-
SOUTHWEST ARKANSAS

CITY           SKY/WX    TMP DP  RH WIND       PRES   REMARKS
ARKADELPHIA    FAIR      47  30  51 CALM      30.25F
CAMDEN         CLOUDY    50  28  43 MISG      30.26F
TEXARKANA      CLOUDY    50  31  48 SE7       30.21F
EL DORADO      CLOUDY    52  30  43 E7        30.24F
DE QUEEN       PTSUNNY   50  30  46 E7        30.19F
$$

ARZ056-057-069-312000-
SOUTHEAST ARKANSAS

CITY           SKY/WX    TMP DP  RH WIND       PRES   REMARKS
PINE BLUFF     CLOUDY    45  28  51 E8        30.27F
STUTTGART      CLOUDY    45  27  49 SE5       30.29F
MONTICELLO     PTSUNNY   51  27  39 VRB5      30.25F

$$




USA.gov is the U.S. government's official web portal to all federal, state and local government web resources and services.